| time (UTC) | temp F | wind direction | speed MPH | gust MPH | rain 1hr in | rain 24hr in | rain mn in | humidity % | barometer mb |
| 20260507044212 | 46 | 45 | 4.0 | 6.0 | 0.00 | 0.44 | 0.00 | 81 | 1010.4 |
| 20260507043148 | 46 | 45 | 3.0 | 3.0 | 0.00 | 0.46 | 0.00 | 81 | 1010.4 |
| 20260507042212 | 46 | 45 | 1.0 | 3.0 | 0.00 | 0.47 | 0.00 | 81 | 1010.5 |
| 20260507041148 | 46 | 45 | 3.0 | 6.0 | 0.00 | 0.48 | 0.00 | 81 | 1010.3 |
| 20260507040300 | 46 | 67 | 0.0 | 1.0 | 0.00 | 0.49 | 0.00 | 81 | 1010.1 |
| 20260507035148 | 45 | 67 | 3.0 | 5.0 | 0.00 | 0.50 | 0.00 | 81 | 1010.0 |
| 20260507034212 | 45 | 90 | 2.0 | 3.0 | 0.00 | 0.50 | 0.00 | 81 | 1009.9 |
| 20260507033148 | 45 | 90 | 2.0 | 4.0 | 0.00 | 0.51 | 0.00 | 81 | 1009.9 |
| 20260507032212 | 45 | 90 | 1.0 | 2.0 | 0.00 | 0.53 | 0.00 | 81 | 1009.9 |
| 20260507031228 | 45 | 90 | 3.0 | 7.0 | 0.00 | 0.55 | 0.00 | 81 | 1009.8 |
| 20260507030212 | 45 | 90 | 3.0 | 6.0 | 0.00 | 0.57 | 0.00 | 81 | 1009.6 |
| 20260507025148 | 45 | 90 | 3.0 | 3.0 | 0.00 | 0.59 | 0.00 | 81 | 1009.6 |
| 20260507024212 | 45 | 45 | 1.0 | 2.0 | 0.00 | 0.61 | 0.00 | 81 | 1009.7 |
| 20260507023148 | 45 | 45 | 2.0 | 3.0 | 0.00 | 0.64 | 0.00 | 80 | 1009.7 |
| 20260507021148 | 45 | 45 | 3.0 | 3.0 | 0.00 | 0.70 | 0.00 | 80 | 1009.5 |
| 20260507020232 | 46 | 45 | 3.0 | 5.0 | 0.00 | 0.73 | 0.00 | 80 | 1009.2 |
| 20260507015148 | 46 | 45 | 8.0 | 9.0 | 0.00 | 0.75 | 0.00 | 81 | 1009.4 |
| 20260507014233 | 46 | 45 | 4.0 | 6.0 | 0.00 | 0.76 | 0.00 | 80 | 1009.5 |
| 20260507013229 | 46 | 45 | 2.0 | 4.0 | 0.00 | 0.79 | 0.00 | 81 | 1009.4 |
| 20260507012232 | 46 | 45 | 5.0 | 6.0 | 0.00 | 0.80 | 0.00 | 81 | 1009.4 |
| 20260507011209 | 46 | 45 | 0.0 | 1.0 | 0.00 | 0.81 | 0.00 | 81 | 1009.3 |
| 20260507010212 | 46 | 45 | 2.0 | 3.0 | 0.00 | 0.82 | 0.00 | 81 | 1008.9 |
| 20260507005228 | 45 | 45 | 1.0 | 3.0 | 0.00 | 0.83 | 0.00 | 81 | 1009.1 |
| 20260507004213 | 45 | 45 | 1.0 | 3.0 | 0.00 | 0.83 | 0.00 | 81 | 1008.9 |
| 20260507003148 | 45 | 45 | 3.0 | 5.0 | 0.00 | 0.85 | 0.00 | 80 | 1008.9 |
| 20260507001148 | 46 | 45 | 5.0 | 6.0 | 0.00 | 0.86 | 0.00 | 81 | 1008.8 |
| 20260507000212 | 46 | 45 | 3.0 | 5.0 | 0.00 | 0.86 | 0.00 | 81 | 1008.9 |
| 20260506235148 | 46 | 45 | 3.0 | 5.0 | 0.00 | 0.86 | 0.00 | 81 | 1008.7 |
| 20260506234212 | 47 | 45 | 3.0 | 6.0 | 0.00 | 0.86 | 0.00 | 81 | 1008.9 |
| 20260506233208 | 47 | 45 | 3.0 | 4.0 | 0.00 | 0.87 | 0.00 | 81 | 1008.7 |
| 20260506232300 | 48 | 67 | 3.0 | 6.0 | 0.00 | 0.87 | 0.00 | 81 | 1008.9 |
| 20260506231148 | 48 | 45 | 5.0 | 7.0 | 0.00 | 0.87 | 0.00 | 82 | 1008.7 |
| 20260506230212 | 49 | 45 | 3.0 | 4.0 | 0.00 | 0.87 | 0.00 | 82 | 1008.6 |
| 20260506225148 | 49 | 45 | 6.0 | 9.0 | 0.00 | 0.87 | 0.00 | 82 | 1008.3 |
| 20260506224233 | 49 | 45 | 3.0 | 4.0 | 0.00 | 0.87 | 0.00 | 82 | 1008.0 |
| 20260506223148 | 50 | 45 | 9.0 | 11.0 | 0.00 | 0.87 | 0.00 | 83 | 1008.0 |
| 20260506222232 | 50 | 45 | 2.0 | 5.0 | 0.00 | 0.87 | 0.00 | 83 | 1008.0 |
| 20260506221249 | 50 | 45 | 3.0 | 6.0 | 0.00 | 0.87 | 0.00 | 83 | 1008.0 |
| 20260506220313 | 50 | 45 | 4.0 | 6.0 | 0.00 | 0.87 | 0.87 | 84 | 1008.1 |
| 20260506215148 | 51 | 45 | 3.0 | 5.0 | 0.00 | 0.87 | 0.87 | 84 | 1008.1 |
| 20260506214213 | 51 | 45 | 3.0 | 5.0 | 0.00 | 0.87 | 0.87 | 85 | 1008.0 |
| 20260506213149 | 51 | 45 | 1.0 | 2.0 | 0.00 | 0.87 | 0.87 | 84 | 1007.9 |
| 20260506212300 | 51 | 45 | 2.0 | 3.0 | 0.00 | 0.87 | 0.87 | 84 | 1007.6 |
| 20260506211148 | 51 | 45 | 4.0 | 6.0 | 0.00 | 0.87 | 0.87 | 85 | 1007.5 |
| 20260506210232 | 51 | 45 | 1.0 | 2.0 | 0.00 | 0.87 | 0.87 | 86 | 1007.6 |
| 20260506205148 | 51 | 45 | 5.0 | 7.0 | 0.00 | 0.87 | 0.87 | 87 | 1007.4 |
| 20260506204232 | 51 | 45 | 3.0 | 4.0 | 0.00 | 0.87 | 0.87 | 88 | 1007.4 |
| 20260506203148 | 51 | 45 | 2.0 | 3.0 | 0.00 | 0.87 | 0.87 | 87 | 1007.5 |
| 20260506202253 | 51 | 45 | 2.0 | 3.0 | 0.00 | 0.87 | 0.87 | 87 | 1007.6 |
| 20260506201229 | 51 | 45 | 1.0 | 3.0 | 0.00 | 0.87 | 0.87 | 87 | 1007.5 |
| 20260506200313 | 51 | 45 | 1.0 | 3.0 | 0.00 | 0.87 | 0.87 | 86 | 1007.3 |
| 20260506195209 | 51 | 0.0 | 1.0 | 0.00 | 0.87 | 0.87 | 86 | 1007.2 | |
| 20260506194253 | 51 | 45 | 3.0 | 5.0 | 0.00 | 0.87 | 0.87 | 86 | 1007.1 |
| 20260506192212 | 51 | 45 | 2.0 | 3.0 | 0.00 | 0.87 | 0.87 | 85 | 1007.1 |
| 20260506191209 | 51 | 45 | 3.0 | 5.0 | 0.00 | 0.87 | 0.87 | 85 | 1007.2 |
| 20260506190253 | 51 | 45 | 0.0 | 1.0 | 0.00 | 0.87 | 0.87 | 84 | 1006.8 |
| 20260506185148 | 51 | 45 | 2.0 | 3.0 | 0.00 | 0.87 | 0.87 | 84 | 1006.7 |
| 20260506184212 | 51 | 45 | 3.0 | 5.0 | 0.00 | 0.87 | 0.87 | 83 | 1006.4 |
| 20260506183148 | 52 | 45 | 1.0 | 3.0 | 0.00 | 0.87 | 0.87 | 83 | 1006.5 |
| 20260506182232 | 52 | 45 | 2.0 | 3.0 | 0.00 | 0.87 | 0.87 | 84 | 1006.4 |
| 20260506181249 | 53 | 45 | 4.0 | 6.0 | 0.00 | 0.87 | 0.87 | 84 | 1006.6 |
| 20260506180212 | 53 | 45 | 2.0 | 3.0 | 0.00 | 0.87 | 0.87 | 84 | 1006.6 |
| 20260506175208 | 53 | 45 | 1.0 | 3.0 | 0.00 | 0.87 | 0.87 | 84 | 1006.3 |
| 20260506174253 | 53 | 45 | 5.0 | 7.0 | 0.00 | 0.87 | 0.87 | 84 | 1006.2 |
| 20260506173148 | 53 | 45 | 1.0 | 2.0 | 0.00 | 0.87 | 0.87 | 84 | 1006.0 |
| 20260506172233 | 54 | 45 | 4.0 | 6.0 | 0.00 | 0.87 | 0.87 | 84 | 1006.3 |
| 20260506171148 | 54 | 45 | 3.0 | 4.0 | 0.00 | 0.87 | 0.87 | 81 | 1006.1 |
| 20260506170233 | 54 | 45 | 0.0 | 3.0 | 0.00 | 0.87 | 0.87 | 81 | 1006.0 |
| 20260506165208 | 55 | 45 | 1.0 | 2.0 | 0.00 | 0.87 | 0.87 | 80 | 1006.1 |
| 20260506164212 | 55 | 45 | 0.0 | 2.0 | 0.00 | 0.87 | 0.87 | 80 | 1005.9 |
| 20260506163209 | 55 | 45 | 4.0 | 6.0 | 0.00 | 0.87 | 0.87 | 80 | 1005.8 |
| 20260506162212 | 56 | 45 | 2.0 | 3.0 | 0.00 | 0.87 | 0.87 | 80 | 1005.9 |
| 20260506161148 | 56 | 45 | 2.0 | 3.0 | 0.00 | 0.87 | 0.87 | 80 | 1006.1 |
| 20260506160300 | 56 | 45 | 3.0 | 4.0 | 0.00 | 0.87 | 0.87 | 81 | 1006.1 |
| 20260506155249 | 56 | 45 | 2.0 | 3.0 | 0.00 | 0.87 | 0.87 | 80 | 1006.2 |
| 20260506154233 | 56 | 45 | 2.0 | 3.0 | 0.00 | 0.87 | 0.87 | 81 | 1006.1 |
| 20260506153209 | 56 | 45 | 2.0 | 3.0 | 0.01 | 0.87 | 0.87 | 81 | 1006.1 |
| 20260506152333 | 56 | 45 | 2.0 | 3.0 | 0.01 | 0.87 | 0.87 | 82 | 1006.2 |
| 20260506151309 | 55 | 45 | 2.0 | 3.0 | 0.01 | 0.87 | 0.87 | 81 | 1006.2 |
| 20260506150212 | 56 | 45 | 2.0 | 3.0 | 0.01 | 0.87 | 0.87 | 82 | 1006.0 |
| 20260506145148 | 56 | 22 | 2.0 | 3.0 | 0.01 | 0.87 | 0.87 | 83 | 1006.1 |
| 20260506144212 | 57 | 45 | 3.0 | 5.0 | 0.01 | 0.87 | 0.87 | 85 | 1006.0 |
| 20260506143149 | 56 | 45 | 3.0 | 5.0 | 0.00 | 0.86 | 0.86 | 88 | 1006.2 |
| 20260506142232 | 55 | 45 | 0.0 | 1.0 | 0.00 | 0.86 | 0.86 | 88 | 1005.9 |
| 20260506141250 | 55 | 45 | 3.0 | 4.0 | 0.00 | 0.86 | 0.86 | 89 | 1006.2 |
| 20260506140232 | 55 | 45 | 5.0 | 7.0 | 0.00 | 0.86 | 0.86 | 90 | 1006.1 |
| 20260506135148 | 54 | 45 | 3.0 | 4.0 | 0.00 | 0.86 | 0.86 | 90 | 1005.9 |
| 20260506134232 | 54 | 45 | 5.0 | 6.0 | 0.00 | 0.86 | 0.86 | 91 | 1005.9 |
| 20260506133148 | 54 | 45 | 3.0 | 4.0 | 0.00 | 0.86 | 0.86 | 92 | 1005.9 |
| 20260506132313 | 54 | 45 | 1.0 | 3.0 | 0.00 | 0.86 | 0.86 | 95 | 1005.9 |
| 20260506131148 | 54 | 45 | 3.0 | 5.0 | 0.00 | 0.86 | 0.86 | 95 | 1006.0 |
| 20260506130212 | 53 | 45 | 0.0 | 2.0 | 0.00 | 0.86 | 0.86 | 95 | 1005.8 |
| 20260506125229 | 54 | 45 | 3.0 | 5.0 | 0.00 | 0.86 | 0.86 | 96 | 1006.0 |
| 20260506124212 | 53 | 45 | 1.0 | 3.0 | 0.00 | 0.86 | 0.86 | 96 | 1005.9 |
| 20260506123148 | 54 | 45 | 0.0 | 2.0 | 0.00 | 0.86 | 0.86 | 96 | 1005.8 |
| 20260506122213 | 54 | 45 | 0.0 | 1.0 | 0.00 | 0.86 | 0.86 | 96 | 1005.9 |
| 20260506121148 | 53 | 45 | 3.0 | 4.0 | 0.00 | 0.86 | 0.86 | 96 | 1005.7 |
| 20260506120212 | 53 | 45 | 2.0 | 3.0 | 0.00 | 0.86 | 0.86 | 96 | 1005.8 |
| 20260506115229 | 53 | 45 | 1.0 | 2.0 | 0.00 | 0.86 | 0.86 | 97 | 1005.5 |
| 20260506114233 | 53 | 45 | 0.0 | 1.0 | 0.00 | 0.86 | 0.86 | 97 | 1005.5 |
| 20260506113148 | 53 | 45 | 1.0 | 3.0 | 0.00 | 0.86 | 0.86 | 97 | 1005.5 |
| 20260506112333 | 53 | 45 | 0.0 | 1.0 | 0.00 | 0.86 | 0.86 | 97 | 1005.4 |
| 20260506111149 | 53 | 45 | 3.0 | 4.0 | 0.00 | 0.86 | 0.86 | 98 | 1005.3 |
| 20260506110212 | 53 | 45 | 3.0 | 4.0 | 0.00 | 0.86 | 0.86 | 98 | 1005.3 |
| 20260506105148 | 53 | 45 | 4.0 | 5.0 | 0.00 | 0.86 | 0.86 | 98 | 1005.3 |
| 20260506103820 | 53 | 45 | 0.0 | 1.0 | 0.00 | 0.86 | 0.86 | 98 | 1005.2 |
| 20260506103209 | 53 | 45 | 3.0 | 4.0 | 0.00 | 0.86 | 0.86 | 98 | 1005.0 |
| 20260506102240 | 53 | 45 | 0.0 | 1.0 | 0.00 | 0.86 | 0.86 | 98 | 1005.0 |
| 20260506101230 | 53 | 45 | 4.0 | 6.0 | 0.01 | 0.86 | 0.86 | 98 | 1004.9 |
| 20260506100340 | 53 | 45 | 4.0 | 6.0 | 0.01 | 0.86 | 0.86 | 98 | 1004.7 |
| 20260506095209 | 52 | 45 | 3.0 | 4.0 | 0.02 | 0.86 | 0.86 | 99 | 1004.7 |
| 20260506094219 | 52 | 45 | 6.0 | 6.0 | 0.02 | 0.86 | 0.86 | 99 | 1004.7 |
| 20260506093149 | 52 | 45 | 3.0 | 5.0 | 0.03 | 0.86 | 0.86 | 99 | 1004.5 |
| 20260506092240 | 52 | 45 | 3.0 | 4.0 | 0.04 | 0.86 | 0.86 | 99 | 1004.4 |
| 20260506091229 | 52 | 45 | 2.0 | 3.0 | 0.04 | 0.85 | 0.85 | 99 | 1004.4 |
| 20260506090240 | 52 | 45 | 3.0 | 3.0 | 0.05 | 0.85 | 0.85 | 99 | 1004.3 |
| 20260506085230 | 52 | 45 | 3.0 | 4.0 | 0.05 | 0.83 | 0.83 | 99 | 1004.2 |
| 20260506084219 | 52 | 45 | 2.0 | 3.0 | 0.08 | 0.83 | 0.83 | 99 | 1004.2 |
| 20260506083149 | 51 | 45 | 3.0 | 4.0 | 0.08 | 0.82 | 0.82 | 98 | 1004.3 |
| 20260506082219 | 51 | 45 | 1.0 | 2.0 | 0.09 | 0.81 | 0.81 | 98 | 1004.3 |
| 20260506081209 | 51 | 0 | 1.0 | 2.0 | 0.11 | 0.80 | 0.80 | 98 | 1004.1 |
| 20260506080240 | 51 | 0 | 3.0 | 5.0 | 0.14 | 0.79 | 0.79 | 98 | 1004.0 |
| 20260506073149 | 51 | 0 | 3.0 | 4.0 | 0.21 | 0.74 | 0.74 | 98 | 1003.7 |
| 20260506072300 | 51 | 0 | 3.0 | 5.0 | 0.22 | 0.72 | 0.72 | 98 | 1003.9 |
| 20260506071149 | 51 | 0 | 3.0 | 4.0 | 0.21 | 0.68 | 0.68 | 98 | 1003.7 |
| 20260506070219 | 51 | 0 | 3.0 | 6.0 | 0.18 | 0.64 | 0.64 | 98 | 1003.6 |
| 20260506062240 | 51 | 0 | 3.0 | 5.0 | 0.05 | 0.49 | 0.49 | 97 | 1003.6 |
| 20260506061209 | 51 | 0 | 3.0 | 4.0 | 0.03 | 0.47 | 0.47 | 97 | 1003.6 |
| 20260506060219 | 51 | 0 | 2.0 | 3.0 | 0.03 | 0.46 | 0.46 | 97 | 1003.4 |
| 20260506051149 | 51 | 0 | 3.0 | 5.0 | 0.04 | 0.43 | 0.43 | 97 | 1003.6 |
| 20260506050320 | 51 | 0 | 3.0 | 4.0 | 0.04 | 0.42 | 0.42 | 97 | 1003.7 |
| 20260506044219 | 51 | 0 | 3.0 | 5.0 | 0.05 | 0.42 | 0.42 | 96 | 1003.7 |